Date String (YYYY-MM-DD hh:mm:ss) UTC,Instrument flags,Ambient pressure (hPa),Sample flow (lpm),Bypass flow (lpm),Sample temperature (°C),Ambient temperature (°C),ASC tube jacket temperature (°C),LED temperature (°C),Box temperature (°C),Sample RH (%),Span deviation,Mass concentration (μg/m³),Mass concentration (μg/m³),Mass concentration (μg/m³)
DateTimeUTC,F1_M11,P_M11,Q1_M11,Q2_M11,T1_M11,T2_M11,T3_M11,T4_M11,T5_M11,U1_M11,ZSPAN_M11,X0_M11,X2_M11,X1_M11
2022-10-07 13:00:00,,0838.0,5.00,0.00,27.5,25.8,00.0,36.3,29.4,20.2,-000.8,0020.70,0010.56,0008.90
2022-10-07 13:01:00,,0838.0,5.00,0.00,27.5,25.8,00.0,36.3,29.4,20.2,-001.1,0020.56,0010.57,0008.92
2022-10-07 13:02:00,,0838.0,5.00,0.00,27.5,25.8,00.0,36.3,29.4,20.1,-000.2,0020.97,0010.58,0008.94
2022-10-07 13:03:00,,0838.0,5.01,0.00,27.5,25.8,00.0,36.3,29.4,20.2,0001.0,0021.18,0010.59,0008.95
2022-10-07 13:04:00,,0838.0,4.99,0.00,27.5,25.8,00.0,36.3,29.4,20.2,0000.9,0020.92,0010.62,0008.96
2022-10-07 13:05:00,,0838.0,5.01,0.00,27.5,25.8,00.0,36.3,29.4,20.2,0001.1,0021.51,0010.64,0008.96
2022-10-07 13:06:00,,0838.1,5.00,0.00,27.5,25.8,00.0,36.3,29.4,20.2,0001.3,0021.74,0010.67,0008.98
2022-10-07 13:07:00,,0838.1,4.98,0.00,27.5,25.8,00.0,36.3,29.4,20.2,0001.8,0021.68,0010.61,0008.97
2022-10-07 13:08:00,,0838.1,5.02,0.00,27.5,25.8,00.0,36.3,29.4,20.1,0001.7,0021.48,0010.63,0008.99
2022-10-07 13:09:00,,0838.1,5.00,0.00,27.5,25.8,00.0,36.3,29.3,20.2,0001.6,0020.73,0010.62,0009.01
2022-10-07 13:10:00,,0838.1,5.00,0.00,27.5,25.8,00.0,36.3,29.3,20.1,0001.4,0020.56,0010.61,0009.02
2022-10-07 13:11:00,,0838.1,5.01,0.00,27.5,25.8,00.0,36.2,29.3,20.1,0000.6,0019.76,0010.56,0009.03
2022-10-07 13:12:00,,0838.1,4.99,0.00,27.5,25.8,00.0,36.3,29.3,20.1,0000.4,0019.21,0010.49,0009.02
2022-10-07 13:13:00,,0838.1,5.01,0.00,27.5,25.8,00.0,36.2,29.3,20.1,-000.8,0018.49,0010.47,0009.01
2022-10-07 13:14:00,,0838.1,4.99,0.00,27.5,25.8,00.0,36.2,29.3,20.1,-001.6,0018.59,0010.53,0009.02
2022-10-07 13:15:00,,0838.1,5.01,0.00,27.4,25.8,00.0,36.2,29.3,20.1,-001.7,0018.35,0010.52,0009.02
2022-10-07 13:16:00,,0838.1,4.98,0.00,27.4,25.8,00.0,36.2,29.3,20.1,-001.9,0017.77,0010.49,0009.01
2022-10-07 13:17:00,,0838.1,5.01,0.00,27.4,25.8,00.0,36.2,29.3,20.0,-001.5,0017.61,0010.46,0009.02
2022-10-07 13:18:00,,0838.1,5.00,0.00,27.4,25.8,00.0,36.2,29.3,20.1,-001.6,0017.01,0010.42,0009.00
2022-10-07 13:19:00,,0838.1,4.99,0.00,27.4,25.8,00.0,36.2,29.3,20.1,-001.7,0016.68,0010.34,0008.95
2022-10-07 13:20:00,,0838.1,5.01,0.00,27.4,25.8,00.0,36.2,29.3,20.1,-002.0,0016.43,0010.27,0008.91
2022-10-07 13:21:00,,0838.1,5.00,0.00,27.4,25.8,00.0,36.2,29.3,20.1,-002.1,0016.22,0010.21,0008.88
2022-10-07 13:22:00,,0838.2,4.99,0.00,27.4,25.8,00.0,36.2,29.3,20.1,-001.6,0016.37,0010.13,0008.83
2022-10-07 13:23:00,,0838.2,5.02,0.00,27.4,25.8,00.0,36.2,29.3,20.1,-001.7,0017.32,0010.11,0008.79
2022-10-07 13:24:00,,0838.2,4.99,0.00,27.4,25.8,00.0,36.2,29.3,20.2,-001.3,0017.69,0010.06,0008.75
2022-10-07 13:25:00,,0838.2,5.00,0.00,27.4,25.8,00.0,36.2,29.3,20.2,-001.4,0017.28,0009.93,0008.68
2022-10-07 13:26:00,,0838.3,5.01,0.00,27.4,25.8,00.0,36.2,29.3,20.2,-001.0,0017.20,0009.86,0008.65
2022-10-07 13:27:00,,0838.2,5.00,0.00,27.4,25.8,00.0,36.2,29.3,20.2,-000.7,0016.93,0009.82,0008.63
2022-10-07 13:28:00,,0838.2,4.99,0.00,27.4,25.8,00.0,36.2,29.3,20.2,-001.0,0017.33,0009.81,0008.60
2022-10-07 13:29:00,,0838.3,5.01,0.00,27.4,25.8,00.0,36.2,29.3,20.2,-000.9,0017.90,0009.81,0008.59
2022-10-07 13:30:00,,0838.2,5.00,0.00,27.4,25.8,00.0,36.2,29.3,20.1,-000.6,0018.33,0009.80,0008.58
2022-10-07 13:31:00,,0838.2,5.01,0.00,27.4,25.7,00.0,36.2,29.3,20.1,0000.1,0018.50,0009.81,0008.56
2022-10-07 13:32:00,,0838.3,4.99,0.00,27.4,25.7,00.0,36.2,29.3,20.1,-000.1,0019.37,0009.81,0008.53
2022-10-07 13:33:00,,0838.3,4.99,0.00,27.4,25.7,00.0,36.1,29.3,20.2,-000.6,0019.36,0009.85,0008.51
2022-10-07 13:34:00,,0838.3,5.01,0.00,27.4,25.7,00.0,36.1,29.3,20.2,-000.6,0019.29,0009.87,0008.50
2022-10-07 13:35:00,,0838.3,5.00,0.00,27.4,25.7,00.0,36.1,29.3,20.1,-001.2,0019.08,0009.88,0008.52
2022-10-07 13:36:00,,0838.3,4.99,0.00,27.4,25.7,00.0,36.1,29.3,20.1,-000.5,0019.88,0009.90,0008.53
2022-10-07 13:37:00,,0838.3,5.01,0.00,27.4,25.7,00.0,36.1,29.3,20.1,-000.5,0020.33,0009.89,0008.50
2022-10-07 13:38:00,,0838.3,4.99,0.00,27.4,25.7,00.0,36.1,29.2,20.1,-001.1,0020.58,0009.91,0008.48
2022-10-07 13:39:00,,0838.3,4.99,0.00,27.4,25.7,00.0,36.1,29.2,20.1,-001.0,0020.39,0009.85,0008.47
2022-10-07 13:40:00,,0838.3,5.01,0.00,27.4,25.7,00.0,36.1,29.2,20.2,-001.1,0019.89,0009.79,0008.44
2022-10-07 13:41:00,,0838.3,4.99,0.00,27.3,25.7,00.0,36.1,29.2,20.2,-001.5,0019.19,0009.72,0008.42
2022-10-07 13:42:00,,0838.3,5.00,0.00,27.3,25.7,00.0,36.1,29.2,20.2,-001.9,0019.05,0009.65,0008.39
2022-10-07 13:43:00,,0838.3,5.00,0.00,27.3,25.7,00.0,36.1,29.2,20.3,-001.6,0018.60,0009.59,0008.38
2022-10-07 13:44:00,,0838.3,5.00,0.00,27.3,25.7,00.0,36.1,29.2,21.9,-001.3,0018.58,0009.49,0008.31
2022-10-07 13:45:00,,0838.3,5.02,0.00,27.3,25.7,00.0,36.1,29.2,23.9,-001.0,0018.18,0009.35,0008.23
2022-10-07 13:46:00,,0838.3,5.00,0.00,27.3,25.6,00.0,36.1,29.2,22.1,-000.0,0018.44,0009.28,0008.16
2022-10-07 13:47:00,,0838.3,4.99,0.00,27.3,25.6,00.0,36.1,29.2,20.8,-000.9,0017.97,0009.19,0008.07
2022-10-07 13:48:00,,0838.3,5.01,0.00,27.3,25.6,00.0,36.1,29.2,20.6,-001.0,0017.15,0009.11,0008.01
2022-10-07 13:49:00,,0838.3,4.99,0.00,27.3,25.6,00.0,36.1,29.2,20.5,-000.8,0016.76,0008.98,0007.92
2022-10-07 13:50:00,,0838.3,4.99,0.00,27.3,25.6,00.0,36.1,29.2,20.5,-000.3,0016.19,0008.90,0007.86
2022-10-07 13:51:00,,0838.3,5.01,0.00,27.3,25.6,00.0,36.1,29.2,20.5,0000.2,0016.12,0008.89,0007.82
2022-10-07 13:52:00,,0838.3,4.99,0.00,27.3,25.6,00.0,36.1,29.2,20.4,0000.5,0016.26,0008.92,0007.80
2022-10-07 13:53:00,,0838.3,5.02,0.00,27.3,25.6,00.0,36.1,29.2,20.4,0000.6,0016.21,0008.92,0007.75
2022-10-07 13:54:00,,0838.3,4.99,0.00,27.3,25.6,00.0,36.1,29.2,20.5,0000.4,0015.68,0008.91,0007.71
2022-10-07 13:55:00,,0838.3,4.99,0.00,27.3,25.6,00.0,36.1,29.2,20.4,0000.1,0015.51,0008.95,0007.71
2022-10-07 13:56:00,,0838.3,5.02,0.00,27.3,25.6,00.0,36.0,29.2,20.4,-000.1,0015.41,0009.01,0007.73
2022-10-07 13:57:00,,0838.3,4.99,0.00,27.3,25.6,00.0,36.0,29.2,20.3,-000.7,0014.98,0009.02,0007.75
2022-10-07 13:58:00,,0838.3,4.99,0.00,27.3,25.6,00.0,36.0,29.1,20.3,-000.6,0015.11,0009.04,0007.77
2022-10-07 13:59:00,,0838.3,5.02,0.00,27.2,25.6,00.0,36.0,29.1,20.3,-000.6,0015.31,0009.09,0007.80
